TimeCET,TemperatureF,Dew PointF,Humidity,Sea Level PressureIn,VisibilityMPH,Wind Direction,Wind SpeedMPH,Gust SpeedMPH,PrecipitationIn,Events,Conditions,WindDirDegrees,DateUTC
12:00 AM,33.8,32.0,93,30.36,1.6,ENE,3.5,-,N/A,,Mist,60,2013-02-27 23:00:00
12:30 AM,32.0,32.0,100,30.36,1.6,East,4.6,-,N/A,,Mist,80,2013-02-27 23:30:00
1:00 AM,33,32,93,30.41,1,ENE,4.5,,,,Mist,70,2013-02-28 00:00:00
1:00 AM,33.8,32.0,93,30.36,1.2,ENE,4.6,-,N/A,,Mist,70,2013-02-28 00:00:00
1:21 AM,32.0,32.0,100,30.36,1.0,ENE,5.8,-,N/A,,Scattered Clouds,70,2013-02-28 00:21:00
1:30 AM,32.0,32.0,100,30.36,1.0,ENE,4.6,-,N/A,,Scattered Clouds,70,2013-02-28 00:30:00
2:00 AM,30.2,30.2,100,30.36,0.2,NE,4.6,-,N/A,Fog,Light Freezing Fog,40,2013-02-28 01:00:00
2:30 AM,32.0,30.2,93,30.36,0.2,ENE,4.6,-,N/A,Fog,Light Freezing Fog,70,2013-02-28 01:30:00
3:00 AM,30.2,30.2,100,30.33,0.2,Variable,2.3,-,N/A,Fog,Light Freezing Fog,0,2013-02-28 02:00:00
3:30 AM,32.0,32.0,100,30.33,0.2,East,4.6,-,N/A,Fog,Light Freezing Fog,80,2013-02-28 02:30:00
4:00 AM,32.0,32.0,100,30.33,0.2,East,4.6,-,N/A,Fog,Light Freezing Fog,80,2013-02-28 03:00:00
4:30 AM,32.0,32.0,100,30.33,0.2,ENE,4.6,-,N/A,Fog,Fog,60,2013-02-28 03:30:00
5:00 AM,32.0,32.0,100,30.33,0.2,ENE,3.5,-,N/A,Fog,Fog,70,2013-02-28 04:00:00
5:30 AM,32.0,32.0,100,30.33,0.2,NE,4.6,-,N/A,Fog,Fog,50,2013-02-28 04:30:00
6:00 AM,32.0,32.0,100,30.33,0.2,NNE,4.6,-,N/A,Fog,Fog,30,2013-02-28 05:00:00
6:30 AM,32.0,32.0,100,30.33,0.1,NE,3.5,-,N/A,Fog,Fog,50,2013-02-28 05:30:00
7:00 AM,32,31,97,30.39,0,NNE,4.5,,,Fog,Heavy Fog,30,2013-02-28 06:00:00
7:00 AM,32.0,32.0,100,30.33,0.1,NNE,3.5,-,N/A,Fog,Fog,30,2013-02-28 06:00:00
7:20 AM,32.0,32.0,100,30.33,0.3,NNE,4.6,-,N/A,Fog,Fog,30,2013-02-28 06:20:00
7:30 AM,32.0,32.0,100,30.33,0.2,NE,4.6,-,N/A,Fog,Fog,40,2013-02-28 06:30:00
8:00 AM,32.0,32.0,100,30.33,0.2,Variable,2.3,-,N/A,Fog,Fog,0,2013-02-28 07:00:00
8:30 AM,32.0,32.0,100,30.33,0.2,NNE,3.5,-,N/A,Fog,Fog,30,2013-02-28 07:30:00
8:31 AM,32.0,32.0,100,30.33,0.4,NNE,3.5,-,N/A,Fog,Fog,30,2013-02-28 07:31:00
9:00 AM,32.0,32.0,100,30.33,0.4,NNE,3.5,-,N/A,Fog,Fog,30,2013-02-28 08:00:00
9:30 AM,32.0,32.0,100,30.33,0.5,North,3.5,-,N/A,Fog,Fog,10,2013-02-28 08:30:00
9:45 AM,32.0,32.0,100,30.33,0.6,Variable,2.3,-,N/A,Fog,Fog,0,2013-02-28 08:45:00
10:00 AM,32.0,32.0,100,30.33,0.7,Variable,2.3,-,N/A,,Overcast,0,2013-02-28 09:00:00
10:30 AM,33.8,33.8,100,30.33,0.9,Variable,2.3,-,N/A,,Overcast,0,2013-02-28 09:30:00
11:00 AM,33.8,32.0,93,30.33,1.2,Variable,1.2,-,N/A,,Overcast,0,2013-02-28 10:00:00
11:30 AM,33.8,32.0,93,30.33,1.4,Calm,Calm,-,N/A,,Overcast,0,2013-02-28 10:30:00
12:00 PM,35.6,32.0,87,30.33,1.6,Variable,1.2,-,N/A,,Overcast,0,2013-02-28 11:00:00
12:30 PM,35.6,32.0,87,30.30,1.9,Variable,1.2,-,N/A,,Mostly Cloudy,0,2013-02-28 11:30:00
1:00 PM,38,33,76,30.34,2,,2.2,,,,Mist,,2013-02-28 12:00:00
1:00 PM,37.4,32.0,81,30.30,2.2,Variable,1.2,-,N/A,,Mostly Cloudy,0,2013-02-28 12:00:00
1:30 PM,37.4,32.0,81,30.27,2.5,Variable,1.2,-,N/A,,Mostly Cloudy,0,2013-02-28 12:30:00
2:00 PM,39.2,32.0,75,30.27,2.8,East,3.5,-,N/A,,Partly Cloudy,80,2013-02-28 13:00:00
2:30 PM,39.2,32.0,75,30.27,3.1,ESE,3.5,-,N/A,,Mist,120,2013-02-28 13:30:00
3:00 PM,41.0,32.0,70,30.24,3.7,Variable,1.2,-,N/A,,Unknown,0,2013-02-28 14:00:00
3:01 PM,41.0,32.0,70,30.24,3.7,Variable,1.2,-,N/A,,Partly Cloudy,0,2013-02-28 14:01:00
3:30 PM,41.0,32.0,70,30.24,3.7,Variable,1.2,-,N/A,,Scattered Clouds,0,2013-02-28 14:30:00
4:00 PM,41.0,32.0,70,30.24,3.7,Variable,1.2,-,N/A,,Unknown,0,2013-02-28 15:00:00
4:30 PM,41.0,32.0,70,30.21,4.3,Variable,2.3,-,N/A,,Unknown,0,2013-02-28 15:30:00
5:00 PM,39.2,32.0,75,30.21,3.7,Variable,1.2,-,N/A,,Unknown,0,2013-02-28 16:00:00
5:30 PM,39.2,30.2,70,30.21,3.7,SW,3.5,-,N/A,,Unknown,230,2013-02-28 16:30:00
6:00 PM,37.4,30.2,75,30.18,3.1,SSW,3.5,-,N/A,,Mist,200,2013-02-28 17:00:00
6:30 PM,35.6,30.2,81,30.18,3.1,WNW,1.2,-,N/A,,Mist,300,2013-02-28 17:30:00
7:00 PM,33,30,85,30.25,3,WSW,2.2,,,,Mist,240,2013-02-28 18:00:00
7:00 PM,33.8,30.2,87,30.18,2.8,SW,2.3,-,N/A,,Mist,230,2013-02-28 18:00:00
7:30 PM,33.8,30.2,87,30.18,2.5,SSW,3.5,-,N/A,,Mist,210,2013-02-28 18:30:00
8:00 PM,33.8,30.2,87,30.18,2.2,Variable,1.2,-,N/A,,Mist,0,2013-02-28 19:00:00
8:30 PM,32.0,28.4,87,30.15,1.9,Variable,2.3,-,N/A,,Mist,0,2013-02-28 19:30:00
9:00 PM,28.4,28.4,100,30.15,1.2,SSW,5.8,-,N/A,,Mist,210,2013-02-28 20:00:00
9:30 PM,32.0,30.2,93,30.15,1.6,South,1.2,-,N/A,,Overcast,190,2013-02-28 20:30:00
10:00 PM,32.0,30.2,93,30.15,1.6,Calm,Calm,-,N/A,,Overcast,0,2013-02-28 21:00:00
10:30 PM,32.0,30.2,93,30.15,1.6,Variable,2.3,-,N/A,,Overcast,0,2013-02-28 21:30:00
11:00 PM,32.0,30.2,93,30.12,1.6,SW,3.5,-,N/A,,Overcast,220,2013-02-28 22:00:00
11:30 PM,32.0,32.0,100,30.12,1.7,Variable,2.3,-,N/A,,Overcast,0,2013-02-28 22:30:00